Weather History for Dallas/Ft Worth, TX

Change the Weather History Date:

Sunday, October 28, 2012

  Actual Average Record
Temperature  
Mean Temperature 51 °F 64 °F  
Max Temperature 64 °F 74 °F 90 °F (1938)
Min Temperature 38 °F 53 °F 30 °F (1925)
Degree Days  
Heating Degree Days 14 4  
Month to date heating degree days 83 54  
Since 1 July heating degree days 83 60  
Cooling Degree Days 0 3  
Month to date cooling degree days 164 138  
Year to date cooling degree days 3281 2715  
Moisture  
Dew Point 29 °F    
Average Humidity 49    
Maximum Humidity 76    
Minimum Humidity 21    
Precipitation  
Precipitation 0.00 in 0.14 in 3.48 in (1991)
Month to date precipitation 1.02 3.79  
Year to date precipitation 29.26 30.45  
Snow  
Snow 0.00 in 0.00 in T in (1925)
Month to date snowfall 0.0 0.0  
Since 1 July snowfall 0.0 0.0  
Since 1 September snowfall 0.0 0.0  
Snow Depth 0.00 in    
Sea Level Pressure  
Sea Level Pressure 30.23 in    
Wind  
Wind Speed 7 mph (North)    
Max Wind Speed 16 mph    
Max Gust Speed 21 mph    
Visibility 10 miles    
Events      
T = Trace of Precipitation, MM = Missing Value Source: NWS Daily Summary

Daily Weather History Graph

Daily Weather History Graph

Search for Another Location

Airport:

Trip Planner

Search our weather history database for the weather conditions in past years. The results will help you decide how hot, cold, wet, or windy it might be!

Date:

Astronomy

Oct. 28, 2012 Rise Set
Actual Time 7:43 AM CDT 6:40 PM CDT
Civil Twilight 7:17 AM CDT 7:05 PM CDT
Nautical Twilight 6:48 AM CDT 7:34 PM CDT
Astronomical Twilight 6:19 AM CDT 8:03 PM CDT
Moon 5:58 PM CDT (10/28) 6:38 AM CDT (10/28)
Length of Visible Light 11h 47m
Length of Day
10h 57m
Waxing Gibbous, 99% of the Moon is Illuminated
Oct 28
Waxing Gibbous
Oct 29
Full
Nov 6
Last Quarter
Nov 13
New
Nov 20
First Quarter

Hourly Weather History & Observations

Time (CDT) Temp. Windchill Dew Point Humidity Pressure Visibility Wind Dir Wind Speed Gust Speed Precip Events Conditions
12:53 AM 43.0 °F 38.2 °F 32.0 °F 65% 30.23 in 10.0 mi NNW 8.1 mph - N/A   Clear
1:53 AM 42.1 °F 37.7 °F 28.9 °F 60% 30.23 in 10.0 mi NNW 6.9 mph - N/A   Clear
2:53 AM 42.1 °F 40.2 °F 30.0 °F 62% 30.23 in 10.0 mi NNW 3.5 mph - N/A   Clear
3:53 AM 42.1 °F 38.4 °F 30.0 °F 62% 30.22 in 10.0 mi NNW 5.8 mph - N/A   Clear
4:53 AM 39.9 °F 34.5 °F 30.9 °F 70% 30.23 in 10.0 mi North 8.1 mph - N/A   Clear
5:53 AM 39.9 °F 33.9 °F 32.0 °F 73% 30.25 in 10.0 mi NNW 9.2 mph - N/A   Clear
6:53 AM 39.0 °F 32.8 °F 30.9 °F 73% 30.25 in 10.0 mi NNW 9.2 mph - N/A   Clear
7:53 AM 37.9 °F 32.1 °F 30.9 °F 76% 30.27 in 10.0 mi North 8.1 mph - N/A   Partly Cloudy
8:53 AM 44.1 °F 39.5 °F 34.0 °F 68% 30.29 in 10.0 mi NNW 8.1 mph - N/A   Scattered Clouds
9:53 AM 48.9 °F - 35.1 °F 59% 30.30 in 10.0 mi North 8.1 mph - N/A   Scattered Clouds
10:53 AM 53.1 °F - 34.0 °F 48% 30.29 in 10.0 mi North 8.1 mph - N/A   Scattered Clouds
11:53 AM 57.2 °F - 28.4 °F 33% 30.28 in 10.0 mi NE 8.1 mph - N/A   Scattered Clouds
12:53 PM 60.1 °F - 27.0 °F 28% 30.26 in 10.0 mi Variable 6.9 mph - N/A   Scattered Clouds
1:53 PM 61.0 °F - 25.0 °F 25% 30.24 in 10.0 mi NNE 12.7 mph - N/A   Scattered Clouds
2:53 PM 63.0 °F - 26.1 °F 25% 30.22 in 10.0 mi NNW 12.7 mph 16.1 mph N/A   Scattered Clouds
3:53 PM 64.0 °F - 25.0 °F 23% 30.20 in 10.0 mi North 12.7 mph - N/A   Partly Cloudy
4:53 PM 63.0 °F - 24.1 °F 23% 30.18 in 10.0 mi Variable 6.9 mph - N/A   Partly Cloudy
5:53 PM 62.1 °F - 23.0 °F 22% 30.18 in 10.0 mi NNE 8.1 mph - N/A   Partly Cloudy
6:53 PM 55.9 °F - 26.1 °F 32% 30.19 in 10.0 mi North 6.9 mph - N/A   Partly Cloudy
7:53 PM 54.0 °F - 27.0 °F 35% 30.20 in 10.0 mi North 6.9 mph - N/A   Partly Cloudy
8:53 PM 52.0 °F - 28.0 °F 40% 30.20 in 10.0 mi North 5.8 mph - N/A   Partly Cloudy
9:53 PM 51.1 °F - 28.9 °F 43% 30.22 in 10.0 mi Calm Calm - N/A   Partly Cloudy
10:53 PM 52.0 °F - 28.0 °F 40% 30.22 in 10.0 mi Calm Calm - N/A   Partly Cloudy
11:53 PM 51.1 °F - 27.0 °F 39% 30.24 in 10.0 mi Calm Calm - N/A   Partly Cloudy